This is the latest recevied weather packets stored in our database for station/object DJ4RO-13. If no packets are shown the sender has not sent any weather packets the latest 10 day(s).
| Time | Temp. | Humidity | Pressure | Rain* | Wind** | Luminosity | Snow |
|---|---|---|---|---|---|---|---|
| 1777388941 | 16.67° C | 27% | 1030.4 hPa | 0 mm | - | 244 W/m² | - |
| 1777388621 | 16.67° C | 29% | 1030.3 hPa | 0 mm | - | 244 W/m² | - |
| 1777388300 | 16.11° C | 29% | 1030.3 hPa | 0 mm | - | 269 W/m² | - |
| 1777387980 | 16.67° C | 28% | 1030.2 hPa | 0 mm | - | 286 W/m² | - |
| 1777387660 | 15.56° C | 29% | 1030.5 hPa | 0 mm | - | 295 W/m² | - |
| 1777387341 | 16.11° C | 28% | 1030.4 hPa | 0 mm | - | 305 W/m² | - |
| 1777387021 | 16.11° C | 28% | 1030.5 hPa | 0 mm | - | 315 W/m² | - |
| 1777386700 | 15.56° C | 29% | 1030.5 hPa | 0 mm | - | 324 W/m² | - |
| 1777386381 | 16.11° C | 28% | 1030.6 hPa | 0 mm | - | 336 W/m² | - |
| 1777386061 | 16.67° C | 27% | 1030.7 hPa | 0 mm | - | 347 W/m² | - |
| 1777385741 | 16.67° C | 28% | 1030.6 hPa | 0 mm | - | 359 W/m² | - |
| 1777385421 | 16.11° C | 28% | 1030.7 hPa | 0 mm | - | 370 W/m² | - |
| 1777385101 | 16.67° C | 28% | 1030.9 hPa | 0 mm | - | 382 W/m² | - |
| 1777384781 | 16.11° C | 28% | 1030.7 hPa | 0 mm | - | 386 W/m² | - |
| 1777384445 | 16.11° C | 29% | 1030.9 hPa | 0 mm | - | 393 W/m² | - |
| 1777384125 | 16.11° C | 28% | 1031 hPa | 0 mm | - | 408 W/m² | - |
| 1777383805 | 16.11° C | 27% | 1030.9 hPa | 0 mm | - | 421 W/m² | - |
| 1777383485 | 16.11° C | 28% | 1030.9 hPa | 0 mm | - | 435 W/m² | - |
| 1777383165 | 15.56° C | 29% | 1030.9 hPa | 0 mm | - | 409 W/m² | - |
| 1777382845 | 16.11° C | 27% | 1031 hPa | 0 mm | - | 378 W/m² | - |
| 1777382525 | 16.67° C | 28% | 1030.9 hPa | 0 mm | - | 429 W/m² | - |
| 1777382193 | 16.11° C | 29% | 1031 hPa | 0 mm | - | 470 W/m² | - |
| 1777381885 | 15.56° C | 28% | 1031 hPa | 0 mm | - | 472 W/m² | - |
| 1777381549 | 16.11° C | 26% | 1031.1 hPa | 0 mm | - | 486 W/m² | - |
| 1777381228 | 16.11° C | 26% | 1031.1 hPa | 0 mm | - | 476 W/m² | - |
* Rain latest hour (hover to see other rain measurements)
** Current wind speed in m/s (hover to see current wind gust speed)